| time (UTC) | temp C | wind direction | speed KPH | gust KPH | rain 1hr cm | rain 24hr cm | rain mn cm | humidity % | barometer mb |
| 20260502214817 | 11 | 0.0 | 0.0 | 0.00 | 0.08 | 0.08 | 97 | 1014.6 | |
| 20260502213817 | 11 | 0.0 | 0.0 | 0.00 | 0.08 | 0.08 | 97 | 1014.7 | |
| 20260502212840 | 11 | 90 | 1.6 | 1.6 | 0.00 | 0.08 | 0.08 | 97 | 1014.7 |
| 20260502211817 | 10 | 90 | 1.6 | 1.6 | 0.00 | 0.08 | 0.08 | 96 | 1014.7 |
| 20260502210819 | 11 | 0.0 | 0.0 | 0.00 | 0.08 | 0.08 | 97 | 1014.7 | |
| 20260502205819 | 11 | 0.0 | 0.0 | 0.00 | 0.08 | 0.08 | 96 | 1014.7 | |
| 20260502204817 | 11 | 0.0 | 0.0 | 0.00 | 0.08 | 0.08 | 96 | 1014.7 | |
| 20260502203816 | 11 | 0.0 | 0.0 | 0.00 | 0.08 | 0.08 | 96 | 1014.7 | |
| 20260502202819 | 12 | 0.0 | 0.0 | 0.00 | 0.08 | 0.08 | 97 | 1014.8 | |
| 20260502201817 | 12 | 0.0 | 0.0 | 0.00 | 0.08 | 0.08 | 96 | 1014.8 | |
| 20260502200816 | 12 | 0.0 | 0.0 | 0.00 | 0.08 | 0.08 | 96 | 1014.8 | |
| 20260502195817 | 12 | 0.0 | 0.0 | 0.00 | 0.08 | 0.08 | 96 | 1014.9 | |
| 20260502194817 | 12 | 0.0 | 0.0 | 0.00 | 0.08 | 0.08 | 96 | 1014.9 | |
| 20260502193836 | 13 | 0.0 | 0.0 | 0.00 | 0.08 | 0.08 | 96 | 1014.9 | |
| 20260502192817 | 13 | 0.0 | 0.0 | 0.00 | 0.08 | 0.08 | 95 | 1014.9 | |
| 20260502191817 | 14 | 0.0 | 0.0 | 0.00 | 0.08 | 0.08 | 95 | 1014.9 | |
| 20260502190820 | 14 | 0.0 | 0.0 | 0.00 | 0.08 | 0.08 | 96 | 1014.8 | |
| 20260502185817 | 15 | 0.0 | 0.0 | 0.00 | 0.08 | 0.08 | 95 | 1014.8 | |
| 20260502184820 | 15 | 0.0 | 0.0 | 0.00 | 0.08 | 0.08 | 95 | 1014.8 | |
| 20260502183819 | 15 | 0.0 | 0.0 | 0.00 | 0.08 | 0.08 | 95 | 1014.8 | |
| 20260502182816 | 16 | 0.0 | 0.0 | 0.00 | 0.08 | 0.08 | 94 | 1014.7 | |
| 20260502181816 | 16 | 0.0 | 0.0 | 0.00 | 0.08 | 0.08 | 94 | 1014.7 | |
| 20260502180901 | 16 | 0.0 | 0.0 | 0.00 | 0.08 | 0.08 | 94 | 1014.5 | |
| 20260502163816 | 17 | 315 | 3.2 | 4.8 | 0.08 | 0.08 | 0.08 | 86 | 1014.9 |
| 20260502162816 | 18 | 315 | 4.8 | 6.4 | 0.03 | 0.03 | 0.03 | 73 | 1015.1 |
| 20260502161816 | 20 | 45 | 8.0 | 11.3 | 0.00 | 0.00 | 0.00 | 66 | 1015.3 |
| 20260502160816 | 20 | 68 | 4.8 | 6.4 | 0.00 | 0.00 | 0.00 | 63 | 1015.4 |
| 20260502151816 | 23 | 135 | 4.8 | 11.3 | 0.00 | 0.00 | 0.00 | 46 | 1015.6 |
| 20260502150816 | 23 | 90 | 4.8 | 6.4 | 0.00 | 0.00 | 0.00 | 51 | 1015.5 |
| 20260502123816 | 23 | 158 | 8.0 | 12.9 | 0.00 | 0.00 | 0.00 | 44 | 1017.1 |
| 20260502122819 | 23 | 158 | 12.9 | 19.3 | 0.00 | 0.00 | 0.00 | 48 | 1017.2 |
| 20260502121816 | 23 | 225 | 12.9 | 29.0 | 0.00 | 0.00 | 0.00 | 48 | 1017.3 |
| 20260502120836 | 23 | 90 | 8.0 | 12.9 | 0.00 | 0.00 | 0.00 | 47 | 1017.3 |
| 20260502115819 | 22 | 113 | 12.9 | 16.1 | 0.00 | 0.00 | 0.00 | 49 | 1017.6 |
| 20260502114816 | 23 | 293 | 4.8 | 9.7 | 0.00 | 0.00 | 0.00 | 47 | 1017.6 |
| 20260502113819 | 23 | 180 | 8.0 | 16.1 | 0.00 | 0.00 | 0.00 | 47 | 1017.8 |
| 20260502112816 | 23 | 203 | 12.9 | 16.1 | 0.00 | 0.00 | 0.00 | 46 | 1018.2 |
| 20260502111816 | 22 | 203 | 11.3 | 19.3 | 0.00 | 0.00 | 0.00 | 48 | 1018.2 |
| 20260502110846 | 22 | 180 | 11.3 | 16.1 | 0.00 | 0.00 | 0.00 | 48 | 1018.3 |
| 20260502105824 | 22 | 203 | 12.9 | 16.1 | 0.00 | 0.00 | 0.00 | 48 | 1018.4 |
| 20260502104816 | 22 | 225 | 4.8 | 8.0 | 0.00 | 0.00 | 0.00 | 46 | 1018.6 |
| 20260502103816 | 22 | 158 | 8.0 | 11.3 | 0.00 | 0.00 | 0.00 | 50 | 1018.8 |
| 20260502102816 | 22 | 225 | 14.5 | 17.7 | 0.00 | 0.00 | 0.00 | 48 | 1018.9 |
| 20260502101816 | 21 | 225 | 6.4 | 11.3 | 0.00 | 0.00 | 0.00 | 52 | 1019.0 |
| 20260502100859 | 21 | 180 | 11.3 | 19.3 | 0.00 | 0.00 | 0.00 | 49 | 1019.1 |
| 20260502090836 | 21 | 180 | 4.8 | 8.0 | 0.00 | 0.00 | 0.00 | 50 | 1019.4 |
| 20260502070816 | 16 | 135 | 11.3 | 17.7 | 0.00 | 0.00 | 0.00 | 46 | 1020.4 |
| 20260502065819 | 16 | 180 | 9.7 | 16.1 | 0.00 | 0.00 | 0.00 | 49 | 1020.5 |
| 20260502064815 | 16 | 203 | 4.8 | 8.0 | 0.00 | 0.00 | 0.00 | 50 | 1020.3 |
| 20260502063816 | 15 | 158 | 4.8 | 8.0 | 0.00 | 0.00 | 0.00 | 53 | 1020.6 |
| 20260502062816 | 15 | 135 | 6.4 | 8.0 | 0.00 | 0.00 | 0.00 | 52 | 1020.5 |
| 20260502061816 | 15 | 180 | 4.8 | 6.4 | 0.00 | 0.00 | 0.00 | 52 | 1020.6 |
| 20260502060819 | 14 | 158 | 6.4 | 9.7 | 0.00 | 0.00 | 0.00 | 52 | 1020.6 |
| 20260502055816 | 13 | 158 | 6.4 | 9.7 | 0.00 | 0.00 | 0.00 | 53 | 1020.7 |
| 20260502054819 | 13 | 180 | 6.4 | 11.3 | 0.00 | 0.00 | 0.00 | 55 | 1020.7 |
| 20260502053816 | 13 | 203 | 8.0 | 11.3 | 0.00 | 0.00 | 0.00 | 55 | 1020.5 |
| 20260502052818 | 12 | 158 | 4.8 | 8.0 | 0.00 | 0.00 | 0.00 | 55 | 1020.6 |
| 20260502051818 | 12 | 135 | 4.8 | 9.7 | 0.00 | 0.00 | 0.00 | 58 | 1020.5 |
| 20260502050838 | 11 | 203 | 4.8 | 8.0 | 0.00 | 0.00 | 0.00 | 59 | 1020.5 |
| 20260502045816 | 11 | 225 | 4.8 | 6.4 | 0.00 | 0.00 | 0.00 | 60 | 1020.5 |
| 20260502044815 | 10 | 180 | 3.2 | 6.4 | 0.00 | 0.00 | 0.00 | 62 | 1020.4 |
| 20260502043819 | 10 | 0.0 | 1.6 | 0.00 | 0.00 | 0.00 | 61 | 1020.2 | |
| 20260502042815 | 10 | 180 | 1.6 | 3.2 | 0.00 | 0.00 | 0.00 | 61 | 1020.2 |
| 20260502041816 | 10 | 203 | 1.6 | 4.8 | 0.00 | 0.00 | 0.00 | 63 | 1020.2 |
| 20260502040815 | 10 | 203 | 4.8 | 6.4 | 0.00 | 0.00 | 0.00 | 61 | 1020.3 |
| 20260502035817 | 10 | 225 | 3.2 | 4.8 | 0.00 | 0.00 | 0.00 | 62 | 1020.3 |
| 20260502034822 | 10 | 225 | 4.8 | 6.4 | 0.00 | 0.00 | 0.00 | 61 | 1020.5 |
| 20260502033820 | 10 | 203 | 4.8 | 9.7 | 0.00 | 0.00 | 0.00 | 60 | 1020.6 |
| 20260502032818 | 9 | 203 | 3.2 | 4.8 | 0.00 | 0.00 | 0.00 | 65 | 1020.6 |
| 20260502031837 | 10 | 225 | 6.4 | 9.7 | 0.00 | 0.00 | 0.00 | 62 | 1020.6 |
| 20260502030820 | 9 | 203 | 1.6 | 3.2 | 0.00 | 0.00 | 0.00 | 66 | 1020.6 |
| 20260502025820 | 7 | 0.0 | 0.0 | 0.00 | 0.00 | 0.00 | 74 | 1020.5 | |
| 20260502024818 | 5 | 225 | 3.2 | 4.8 | 0.00 | 0.00 | 0.00 | 79 | 1020.4 |
| 20260502023817 | 5 | 225 | 1.6 | 3.2 | 0.00 | 0.00 | 0.00 | 81 | 1020.4 |
| 20260502022817 | 5 | 0.0 | 1.6 | 0.00 | 0.00 | 0.00 | 79 | 1020.5 | |
| 20260502021817 | 4 | 0.0 | 0.0 | 0.00 | 0.00 | 0.00 | 83 | 1020.4 | |
| 20260502020837 | 4 | 0.0 | 0.0 | 0.00 | 0.00 | 0.00 | 82 | 1020.5 | |
| 20260502015817 | 4 | 0.0 | 0.0 | 0.00 | 0.00 | 0.00 | 83 | 1020.5 | |
| 20260502014837 | 5 | 113 | 1.6 | 3.2 | 0.00 | 0.00 | 0.00 | 81 | 1020.5 |
| 20260502013840 | 5 | 0.0 | 0.0 | 0.00 | 0.00 | 0.00 | 82 | 1020.5 | |
| 20260502012817 | 4 | 0.0 | 0.0 | 0.00 | 0.00 | 0.00 | 82 | 1020.6 | |
| 20260502011817 | 4 | 0.0 | 0.0 | 0.00 | 0.00 | 0.00 | 83 | 1020.5 | |
| 20260502010817 | 4 | 0.0 | 0.0 | 0.00 | 0.00 | 0.00 | 83 | 1020.6 | |
| 20260502005817 | 4 | 0.0 | 0.0 | 0.00 | 0.00 | 0.00 | 83 | 1020.7 | |
| 20260502004817 | 4 | 0.0 | 0.0 | 0.00 | 0.00 | 0.00 | 82 | 1020.8 | |
| 20260502003820 | 5 | 0.0 | 0.0 | 0.00 | 0.00 | 0.00 | 82 | 1020.8 | |
| 20260502002820 | 4 | 0.0 | 0.0 | 0.00 | 0.00 | 0.00 | 83 | 1020.9 | |
| 20260502001817 | 5 | 0.0 | 0.0 | 0.00 | 0.00 | 0.00 | 82 | 1021.1 | |
| 20260502000820 | 5 | 0.0 | 0.0 | 0.00 | 0.00 | 0.00 | 82 | 1021.1 | |
| 20260501235817 | 5 | 0.0 | 0.0 | 0.00 | 0.00 | 0.00 | 81 | 1021.1 | |
| 20260501234817 | 5 | 0.0 | 0.0 | 0.00 | 0.00 | 0.00 | 82 | 1021.3 | |
| 20260501233817 | 5 | 0.0 | 0.0 | 0.00 | 0.00 | 0.00 | 80 | 1021.3 | |
| 20260501232837 | 5 | 0.0 | 0.0 | 0.00 | 0.00 | 0.00 | 79 | 1021.4 | |
| 20260501231840 | 5 | 0.0 | 0.0 | 0.00 | 0.00 | 0.00 | 80 | 1021.4 | |
| 20260501230840 | 5 | 0.0 | 0.0 | 0.00 | 0.00 | 0.00 | 78 | 1021.4 | |
| 20260501225817 | 5 | 0.0 | 1.6 | 0.00 | 0.00 | 0.00 | 80 | 1021.4 | |
| 20260501224817 | 6 | 0.0 | 0.0 | 0.00 | 0.00 | 0.00 | 78 | 1021.6 | |
| 20260501223817 | 6 | 0.0 | 0.0 | 0.00 | 0.00 | 0.00 | 76 | 1021.4 | |
| 20260501222817 | 6 | 0.0 | 0.0 | 0.00 | 0.00 | 0.00 | 78 | 1021.5 | |
| 20260501221817 | 6 | 0.0 | 0.0 | 0.00 | 0.00 | 0.00 | 76 | 1021.6 | |
| 20260501220817 | 7 | 0.0 | 1.6 | 0.00 | 0.00 | 0.00 | 73 | 1021.5 | |
| 20260501215817 | 7 | 0.0 | 0.0 | 0.00 | 0.00 | 0.00 | 73 | 1021.6 |